Погода в Ртищевском

Россия / Саратовская область     52°19′48″N   43°53′10″E
темп.,
°C
ветер,
м/с
пор.,
м/с
влажн.,
%
обл.,
%
осадки,
мм/ч
давл.,
гПа
погр.,
м
22 января, сб
сб2201:00−4ю7149599 0.8 1010536
04:00−5ююз3695100 1.1 1011229
07:00−7ююв2398100 0.1 101138
10:00−7ю3797100 0.1 1012141
13:00−4ю4894100 0.1 1013530
16:00−3ю3795100 0.5 1014508
19:00−10ю359982 0.0 101744
22:00−10ю369996 0.1 101974
23 января, вс
вс2301:00−12ююв2299100 0.1 102035
04:00−9ююв2397100 0.1 102259
07:00−11вюв3297100 0.0 102334
10:00−8в2496100 0.0 1025102
13:00−5всв3595100 0.0 1025198
16:00−3всв4897100 0.8 1026407
19:00−4в51096100 1.2 1027410
22:00−4в51096100 2.2 1029349
24 января, пн
пн2401:00−6в51192100 0.4 1030291
04:00−7в51191100 0.4 1031246
07:00−9в51288100 0.0 1032239
10:00−10в51387100 0.0 1033266
13:00−8в51387100 0.0 1033357
16:00−8в6138898 0.0 1033308
19:00−10в6139036 0.0 1033248
22:00−11вюв5148934 0.0 1033235
25 января, вт
вт2501:00−11вюв5129195 0.0 1033221
04:00−14вюв4119387 0.0 1032164
07:00−14вюв41193100 0.0 1031166
10:00−11юв41191100 0.0 1031216
13:00−10юв41093100 0.0 1029246
16:00−9юв489454 0.0 1028210
19:00−10ююв489665 0.1 1028170
22:00−11ююв369784 0.1 102799
26 января, ср
ср2601:00−9ю2496100 0.1 102597
04:00−6ю2396100 0.2 1024118
07:00−6ююв2396100 0.1 102384
10:00−6ююв3596100 0.2 1023141
13:00−4ююз3595100 0.1 1023246
16:00−3ююз249596 0.1 1022341
19:00−3юз2388100 0.1 102366
22:00−4ююз2387100 0.1 102356